VA2LGT-13 Weather Reports


Display with metric or nautical units.
time (UTC)temp
F
wind
direction
speed
MPH
gust
MPH
rain 1hr
in
rain 24hr
in
rain mn
in
humidity
%
barometer
mb
20190821141715 71 172 0.0 2.0 0.09 0.00 0.00 77 1009.4
20190821141225 71 163 0.0 2.0 0.00 0.00 0.00 75 1008.9
20190821140745 71 139 0.0 2.0 0.00 0.00 0.00 75 1008.8
20190821140330 71 147 0.0 3.0 0.00 0.00 0.00 75 1008.9
20190821135831 71 148 0.0 4.0 0.00 0.00 0.00 76 1008.8
20190821135359 71 144 0.0 3.0 0.00 0.00 0.00 76 1008.8
20190821134940 71 144 0.0 3.0 0.00 0.00 0.00 76 1008.7
20190821134519 71 130 0.0 4.0 0.00 0.00 0.00 75 1008.7
20190821134111 71 130 0.0 4.0 0.00 0.00 0.00 75 1008.7
20190821133700 71 129 0.0 6.0 0.00 0.00 0.00 73 1008.8
20190821132825 72 149 0.0 2.0 0.00 0.00 0.00 71 1009.2
20190821132412 72 145 0.0 2.0 0.00 0.00 0.00 72 1008.9
20190821131952 72 124 0.0 4.0 0.00 0.00 0.00 70 1009.1
20190821131518 72 142 0.0 2.0 0.00 0.00 0.00 70 1009.1
20190821131040 72 142 0.0 2.0 0.00 0.00 0.00 70 1009.1
20190821130640 71 143 0.0 1.0 0.00 0.00 0.00 70 1009.1
20190821130205 71 0.0 0.0 0.00 0.00 0.00 69 1009.0
20190821125740 71 149 0.0 2.0 0.00 0.00 0.00 69 1009.0
20190821124905 70 159 0.0 1.0 0.00 0.00 0.00 70 1009.2
20190821124435 70 164 0.0 2.0 0.00 0.00 0.00 72 1009.1
20190821123530 69 154 0.0 2.0 0.00 0.00 0.00 75 1009.1
20190821123104 69 154 0.0 2.0 0.00 0.00 0.00 75 1009.1
20190821122125 69 152 0.0 2.0 0.00 0.00 0.00 75 1009.2
20190821121645 69 162 0.0 2.0 0.00 0.00 0.00 76 1009.1
20190821121145 69 147 0.0 6.0 0.00 0.00 0.00 76 1009.0
20190821120730 69 164 0.0 3.0 0.00 0.00 0.00 76 1008.6
20190821120334 69 171 0.0 6.0 0.00 0.00 0.00 76 1008.6
20190821120236 69 171 0.0 6.0 0.00 0.00 0.00 76 1008.6
20190821115830 69 158 0.0 6.0 0.00 0.00 0.00 76 1008.5
20190821115405 68 169 0.0 8.0 0.00 0.00 0.00 77 1008.6
20190821114510 68 163 0.0 6.0 0.00 0.00 0.00 79 1008.8
20190821114010 68 160 0.0 6.0 0.00 0.00 0.00 79 1008.7
20190821113537 67 160 0.0 8.0 0.00 0.00 0.00 79 1008.7
20190821113140 67 160 0.0 8.0 0.00 0.00 0.00 79 1008.7
20190821112730 67 160 0.0 8.0 0.00 0.00 0.00 79 1008.7
20190821112300 67 157 0.0 7.0 0.00 0.00 0.00 79 1008.5
20190821111901 67 158 0.0 6.0 0.00 0.00 0.00 79 1008.8
20190821111500 67 156 0.0 6.0 0.00 0.00 0.00 79 1008.8
20190821110128 67 155 0.0 7.0 0.00 0.00 0.00 79 1008.7
20190821105725 67 154 0.0 7.0 0.00 0.00 0.00 80 1008.9
20190821105320 67 159 0.0 6.0 0.00 0.00 0.00 81 1009.0
20190821104906 66 152 0.0 6.0 0.00 0.00 0.00 82 1008.9
20190821104425 66 155 0.0 7.0 0.00 0.00 0.00 82 1008.9
20190821103925 66 155 0.0 7.0 0.00 0.00 0.00 83 1008.9
20190821103425 66 158 0.0 7.0 0.00 0.00 0.00 83 1009.1
20190821102943 66 158 0.0 7.0 0.00 0.00 0.00 83 1009.1
20190821102525 66 158 0.0 8.0 0.00 0.00 0.00 83 1009.2
20190821101645 66 154 0.0 6.0 0.00 0.00 0.00 82 1009.1
20190821101229 66 161 0.0 4.0 0.00 0.00 0.00 82 1009.0
20190821100804 66 152 0.0 4.0 0.00 0.00 0.00 82 1009.1
20190821100305 66 155 0.0 4.0 0.00 0.00 0.00 82 1008.8
20190821095855 66 156 0.0 4.0 0.00 0.00 0.00 81 1009.0
20190821095446 66 156 0.0 4.0 0.00 0.00 0.00 81 1009.1
20190821095019 66 157 0.0 6.0 0.00 0.00 0.00 81 1009.0
20190821094519 66 159 0.0 6.0 0.00 0.00 0.00 81 1009.1
20190821094046 66 159 0.0 6.0 0.00 0.00 0.00 81 1009.1
20190821093615 65 155 0.0 6.0 0.00 0.00 0.00 81 1009.1
20190821093206 65 155 0.0 6.0 0.00 0.00 0.00 80 1009.1
20190821092715 65 155 0.0 6.0 0.00 0.00 0.00 80 1009.1
20190821092246 65 150 0.0 7.0 0.00 0.00 0.00 80 1009.3
20190821091745 65 152 0.0 7.0 0.00 0.00 0.00 79 1009.4
20190821091301 65 154 0.0 7.0 0.00 0.00 0.00 79 1009.5
20190821090805 65 153 0.0 7.0 0.00 0.00 0.00 79 1009.5
20190821090340 64 151 0.0 6.0 0.00 0.00 0.00 79 1009.5
20190821085934 64 143 0.0 3.0 0.00 0.00 0.00 79 1009.5
20190821085459 64 146 0.0 3.0 0.00 0.00 0.00 79 1009.6
20190821084520 64 140 0.0 3.0 0.00 0.00 0.00 78 1009.8
20190821084114 64 140 0.0 3.0 0.00 0.00 0.00 78 1009.8
20190821083714 64 151 0.0 2.0 0.00 0.00 0.00 78 1010.1
20190821082855 64 153 0.0 4.0 0.00 0.00 0.00 79 1009.9
20190821082449 64 147 0.0 3.0 0.00 0.00 0.00 79 1010.0
20190821082005 64 142 0.0 2.0 0.00 0.00 0.00 79 1010.1
20190821081529 63 155 0.0 3.0 0.00 0.00 0.00 79 1010.1
20190821081113 63 155 0.0 3.0 0.00 0.00 0.00 79 1010.1
20190821080611 63 146 0.0 4.0 0.00 0.00 0.00 79 1010.3
20190821080131 64 149 0.0 4.0 0.00 0.00 0.00 79 1010.3
20190821075232 64 160 0.0 6.0 0.00 0.00 0.00 79 1010.5
20190821074825 64 163 0.0 4.0 0.00 0.00 0.00 79 1010.5
20190821074354 64 162 0.0 6.0 0.00 0.00 0.00 79 1010.5
20190821073910 63 164 0.0 4.0 0.00 0.00 0.00 79 1010.6
20190821073005 63 149 0.0 3.0 0.00 0.00 0.00 79 1010.5
20190821072034 63 152 0.0 2.0 0.00 0.00 0.00 78 1010.5
20190821071552 63 152 0.0 2.0 0.00 0.00 0.00 78 1010.5
20190821071050 63 151 0.0 4.0 0.00 0.00 0.00 78 1010.5
20190821070635 63 151 0.0 3.0 0.00 0.00 0.00 77 1010.4
20190821065805 63 150 0.0 3.0 0.00 0.00 0.00 77 1010.4
20190821065304 62 148 0.0 3.0 0.00 0.00 0.00 77 1010.4
20190821064846 62 151 0.0 2.0 0.00 0.00 0.00 77 1010.3
20190821064350 62 149 0.0 2.0 0.00 0.00 0.00 78 1010.6
20190821063905 62 155 0.0 2.0 0.00 0.00 0.00 77 1010.7
20190821063435 63 152 0.0 3.0 0.00 0.00 0.00 76 1010.8
20190821063015 63 152 0.0 3.0 0.00 0.00 0.00 76 1010.8
20190821062530 63 154 0.0 2.0 0.00 0.00 0.00 76 1010.5
20190821062035 63 153 0.0 2.0 0.00 0.00 0.00 76 1010.6
20190821061535 63 149 0.0 2.0 0.00 0.00 0.00 76 1010.7
20190821061105 63 149 0.0 2.0 0.00 0.00 0.00 76 1010.7
20190821060206 63 152 0.0 2.0 0.00 0.00 0.00 76 1011.1
20190821055333 64 150 0.0 2.0 0.00 0.00 0.00 74 1011.1
20190821054844 64 155 0.0 1.0 0.00 0.00 0.00 73 1011.2
20190821054400 64 152 0.0 2.0 0.00 0.00 0.00 73 1011.2
20190821053941 64 155 0.0 2.0 0.00 0.00 0.00 72 1011.2
20190821053525 63 156 0.0 1.0 0.00 0.00 0.00 74 1011.5
20190821053047 63 156 0.0 1.0 0.00 0.00 0.00 74 1011.5
20190821052629 63 156 0.0 1.0 0.00 0.00 0.00 74 1011.5
20190821052205 63 157 0.0 1.0 0.00 0.00 0.00 75 1011.4
20190821051805 63 0.0 0.0 0.00 0.00 0.00 74 1011.5
20190821051331 63 0.0 0.0 0.00 0.00 0.00 74 1011.7
20190821050500 64 157 0.0 1.0 0.00 0.00 0.00 73 1011.7
20190821050040 64 161 0.0 1.0 0.00 0.00 0.00 73 1011.9
20190821045605 64 161 0.0 1.0 0.00 0.00 0.00 73 1011.9
20190821044225 65 164 0.0 2.0 0.00 0.00 0.00 72 1011.9
20190821043750 65 167 0.0 2.0 0.00 0.00 0.00 72 1011.9
20190821042859 65 169 0.0 4.0 0.00 0.00 0.00 71 1011.9
20190821042446 65 169 0.0 4.0 0.00 0.00 0.00 71 1011.9
20190821042045 65 169 0.0 4.0 0.00 0.00 0.00 71 1011.9
20190821041205 65 159 0.0 3.0 0.00 0.00 0.00 71 1011.9
20190821040750 65 159 0.0 3.0 0.00 0.00 0.00 71 1011.9
20190821035850 65 153 0.0 2.0 0.00 0.00 0.00 71 1011.8
20190821035435 66 149 0.0 3.0 0.00 0.00 0.00 71 1011.8
20190821035035 66 147 0.0 3.0 0.00 0.00 0.00 70 1011.9
20190821034610 66 147 0.0 3.0 0.00 0.00 0.00 70 1011.9
20190821034155 67 151 0.0 2.0 0.00 0.00 0.00 67 1012.1
20190821033710 67 159 0.0 2.0 0.00 0.00 0.00 66 1012.1
20190821033220 67 161 0.0 2.0 0.00 0.00 0.00 68 1012.1
20190821032729 67 161 0.0 2.0 0.00 0.00 0.00 68 1012.1
20190821032230 67 164 0.0 2.0 0.00 0.00 0.00 68 1012.2
20190821031330 67 164 0.0 1.0 0.00 0.00 0.00 69 1012.3
20190821030510 67 159 0.0 1.0 0.00 0.00 0.00 70 1012.2
20190821025140 67 156 0.0 2.0 0.00 0.00 0.00 71 1012.2
20190821024655 67 153 0.0 2.0 0.00 0.00 0.00 70 1012.1
20190821024239 68 160 0.0 1.0 0.00 0.00 0.00 69 1012.3
20190821023745 68 161 0.0 2.0 0.00 0.00 0.00 68 1012.2
20190821023255 68 163 0.0 1.0 0.00 0.00 0.00 68 1012.2
20190821022832 68 163 0.0 1.0 0.00 0.00 0.00 68 1012.2
20190821022426 68 162 0.0 1.0 0.00 0.00 0.00 67 1012.2
20190821021604 68 151 0.0 2.0 0.00 0.00 0.00 67 1012.3
20190821021115 69 149 0.0 2.0 0.00 0.00 0.00 67 1012.2
20190821020620 69 150 0.0 3.0 0.00 0.00 0.00 65 1012.4
20190821015719 70 160 0.0 1.0 0.00 0.00 0.00 61 1012.4
20190821015224 70 158 0.0 2.0 0.00 0.00 0.00 61 1012.5
20190821014812 70 160 0.0 2.0 0.00 0.00 0.00 60 1012.7
20190821013925 71 163 0.0 1.0 0.00 0.00 0.00 59 1012.9
20190821013050 71 162 0.0 1.0 0.00 0.00 0.00 59 1012.9
20190821012649 71 162 0.0 1.0 0.00 0.00 0.00 59 1012.9
20190821012235 72 162 0.0 1.0 0.00 0.00 0.00 59 1012.8
20190821011818 72 162 0.0 1.0 0.00 0.00 0.00 58 1012.8
20190821011410 72 162 0.0 1.0 0.00 0.00 0.00 58 1012.8
20190821010945 72 0.0 0.0 0.00 0.00 0.00 58 1013.0
20190821010545 72 0.0 0.0 0.00 0.00 0.00 58 1013.0
20190821010120 73 163 0.0 1.0 0.00 0.00 0.00 57 1012.9
20190821005659 73 162 0.0 1.0 0.00 0.00 0.00 56 1012.8
20190821005224 73 163 0.0 1.0 0.00 0.00 0.00 56 1012.8
20190821004731 73 157 0.0 1.0 0.00 0.00 0.00 55 1012.9
20190821004300 74 152 0.0 2.0 0.00 0.00 0.00 55 1012.9
20190821003825 74 157 0.0 2.0 0.00 0.00 0.00 53 1012.9
20190821003325 76 157 0.0 2.0 0.00 0.00 0.00 51 1012.8
20190821002847 76 157 0.0 2.0 0.00 0.00 0.00 51 1012.8
20190821002415 76 161 0.0 2.0 0.00 0.00 0.00 50 1012.6
20190821002009 76 168 0.0 2.0 0.00 0.00 0.00 49 1012.6
20190821001055 76 165 0.0 2.0 0.00 0.00 0.00 50 1012.7
20190821000656 77 165 0.0 1.0 0.00 0.00 0.00 50 1012.6
20190821000245 77 167 0.0 2.0 0.00 0.00 0.00 50 1012.7
20190820235804 77 0.0 0.0 0.00 0.00 0.00 52 1012.5
20190820235320 77 167 0.0 1.0 0.00 0.00 0.00 52 1012.7
20190820234349 78 167 0.0 1.0 0.00 0.00 0.00 52 1012.8
20190820233925 78 164 0.0 2.0 0.00 0.00 0.00 51 1012.8
20190820233434 79 162 0.0 2.0 0.00 0.00 0.00 44 1012.8
20190820233015 79 162 0.0 2.0 0.00 0.00 0.00 44 1012.8
20190820232100 79 159 0.0 2.0 0.00 0.00 0.00 43 1012.9
20190820231659 80 166 0.0 2.0 0.00 0.00 0.00 42 1012.9
20190820231217 80 174 0.0 3.0 0.00 0.00 0.00 41 1012.9
20190820230745 80 168 0.0 2.0 0.00 0.00 0.00 42 1012.9
20190820225855 81 171 0.0 4.0 0.00 0.00 0.00 41 1013.0
20190820225449 81 197 0.0 4.0 0.00 0.00 0.00 41 1013.1
20190820224615 81 183 0.0 7.0 0.00 0.00 0.00 42 1013.2
20190820223642 81 202 0.0 6.0 0.00 0.00 0.00 42 1013.4
20190820223230 81 206 0.0 8.0 0.00 0.00 0.00 44 1013.5
20190820222820 81 206 0.0 8.0 0.00 0.00 0.00 44 1013.5
20190820222420 81 215 0.0 9.0 0.00 0.00 0.00 45 1013.6
20190820221950 82 215 0.0 7.0 0.00 0.00 0.00 45 1013.7
20190820221514 82 205 0.0 8.0 0.00 0.00 0.00 45 1013.8
20190820220605 82 179 0.0 7.0 0.00 0.00 0.00 46 1013.7
20190820220145 82 179 0.0 7.0 0.00 0.00 0.00 46 1013.7
20190820215644 82 220 0.0 10.0 0.00 0.00 0.00 46 1013.8
20190820215226 82 211 0.0 8.0 0.00 0.00 0.00 46 1013.9
20190820214740 82 228 0.0 8.0 0.00 0.00 0.00 46 1014.0
20190820214320 82 193 0.0 8.0 0.00 0.00 0.00 46 1014.0
20190820213835 82 229 0.0 8.0 0.00 0.00 0.00 47 1013.9
20190820213345 82 225 0.0 9.0 0.00 0.00 0.00 46 1014.3
20190820212924 82 225 0.0 9.0 0.00 0.00 0.00 46 1014.3
20190820212500 83 207 0.0 10.0 0.00 0.00 0.00 46 1014.1
20190820212040 83 209 0.0 7.0 0.00 0.00 0.00 45 1014.1
20190820211215 83 224 0.0 9.0 0.00 0.00 0.00 45 1014.0
20190820210340 82 197 0.0 6.0 0.00 0.00 0.00 46 1014.4
20190820205855 83 224 0.0 11.0 0.00 0.00 0.00 45 1014.4
20190820205439 82 196 0.0 6.0 0.00 0.00 0.00 45 1014.2
20190820204555 82 200 0.0 9.0 0.00 0.00 0.00 45 1014.5
20190820204115 82 232 0.0 8.0 0.00 0.00 0.00 44 1014.5
20190820203655 82 230 0.0 9.0 0.00 0.00 0.00 45 1014.6
20190820203225 83 230 0.0 8.0 0.00 0.00 0.00 44 1014.9
20190820202811 83 230 0.0 8.0 0.00 0.00 0.00 44 1014.9
20190820202350 83 188 0.0 7.0 0.00 0.00 0.00 43 1014.6
20190820201939 83 235 0.0 9.0 0.00 0.00 0.00 42 1014.7
20190820201455 83 227 0.0 10.0 0.00 0.00 0.00 43 1014.9
20190820201025 83 208 0.0 8.0 0.00 0.00 0.00 43 1014.8
20190820200606 83 208 0.0 8.0 0.00 0.00 0.00 43 1014.8
20190820200157 83 195 0.0 10.0 0.00 0.00 0.00 43 1014.8
20190820195735 83 212 0.0 8.0 0.00 0.00 0.00 42 1015.0
20190820195320 83 214 0.0 8.0 0.00 0.00 0.00 42 1014.9
20190820194819 83 214 0.0 9.0 0.00 0.00 0.00 42 1014.8
20190820194415 83 186 0.0 7.0 0.00 0.00 0.00 42 1014.9
20190820194013 83 223 0.0 7.0 0.00 0.00 0.00 42 1014.9
20190820193551 83 223 0.0 7.0 0.00 0.00 0.00 42 1014.9
20190820193144 83 214 0.0 8.0 0.00 0.00 0.00 41 1015.2
20190820192705 83 214 0.0 8.0 0.00 0.00 0.00 41 1015.2
20190820191818 83 211 0.0 9.0 0.00 0.00 0.00 41 1014.9
20190820190930 82 221 0.0 8.0 0.00 0.00 0.00 42 1015.1
20190820190500 82 215 0.0 9.0 0.00 0.00 0.00 39 1015.2
20190820190050 82 215 0.0 9.0 0.00 0.00 0.00 39 1015.2
20190820185635 83 228 0.0 10.0 0.00 0.00 0.00 37 1015.2
20190820185225 83 220 0.0 11.0 0.00 0.00 0.00 37 1015.2
20190820184809 82 230 0.0 11.0 0.00 0.00 0.00 37 1015.3
20190820184354 82 213 0.0 11.0 0.00 0.00 0.00 37 1015.2
20190820183929 82 214 0.0 9.0 0.00 0.00 0.00 38 1015.2
20190820183515 82 222 0.0 9.0 0.00 0.00 0.00 38 1015.7
20190820183110 82 222 0.0 9.0 0.00 0.00 0.00 38 1015.7
20190820182620 82 222 0.0 9.0 0.00 0.00 0.00 38 1015.7
20190820182200 82 222 0.0 9.0 0.00 0.00 0.00 38 1015.7
20190820181712 82 222 0.0 9.0 0.00 0.00 0.00 38 1015.7
20190820181215 82 222 0.0 9.0 0.00 0.00 0.00 38 1015.7
20190820180810 82 195 0.0 9.0 0.00 0.00 0.00 38 1015.7
20190820180321 82 204 0.0 9.0 0.00 0.00 0.00 39 1015.7
20190820175824 82 230 0.0 8.0 0.00 0.00 0.00 38 1015.6
20190820175333 82 230 0.0 11.0 0.00 0.00 0.00 39 1015.6
20190820174930 82 190 0.0 7.0 0.00 0.00 0.00 40 1015.6
20190820174527 81 212 0.0 6.0 0.00 0.00 0.00 39 1015.6
20190820174100 81 212 0.0 6.0 0.00 0.00 0.00 39 1015.6
20190820172728 81 220 0.0 10.0 0.00 0.00 0.00 38 1015.6
20190820172330 81 187 0.0 7.0 0.00 0.00 0.00 39 1015.5
20190820171450 81 222 0.0 8.0 0.00 0.00 0.00 39 1015.3
20190820171000 81 196 0.0 7.0 0.00 0.00 0.00 38 1015.5
20190820170545 81 196 0.0 7.0 0.00 0.00 0.00 38 1015.5
20190820170145 81 182 0.0 7.0 0.00 0.00 0.00 41 1015.5
20190820165705 81 184 0.0 7.0 0.00 0.00 0.00 42 1015.6
20190820164749 81 221 0.0 9.0 0.00 0.00 0.00 43 1015.7
20190820164310 81 223 0.0 7.0 0.00 0.00 0.00 44 1015.7
20190820163815 81 189 0.0 7.0 0.00 0.00 0.00 44 1015.7
20190820163340 80 216 0.0 7.0 0.00 0.00 0.00 43 1015.9
20190820162855 80 216 0.0 7.0 0.00 0.00 0.00 43 1015.9
20190820162400 80 197 0.0 8.0 0.00 0.00 0.00 44 1015.9
20190820162000 79 195 0.0 8.0 0.00 0.00 0.00 44 1015.9
20190820161555 79 195 0.0 8.0 0.00 0.00 0.00 44 1015.9
20190820161124 79 202 0.0 7.0 0.00 0.00 0.00 43 1015.9
20190820160624 79 175 0.0 7.0 0.00 0.00 0.00 45 1016.0
20190820160134 79 191 0.0 4.0 0.00 0.00 0.00 45 1016.2
20190820155645 79 193 0.0 7.0 0.00 0.00 0.00 46 1016.3
20190820155225 79 209 0.0 8.0 0.00 0.00 0.00 46 1016.2
20190820154748 78 185 0.0 8.0 0.00 0.00 0.00 48 1016.3
20190820154333 78 215 0.0 7.0 0.00 0.00 0.00 50 1016.3
20190820152959 78 205 0.0 7.0 0.00 0.00 0.00 48 1016.6
20190820152505 78 208 0.0 8.0 0.00 0.00 0.00 49 1016.6
20190820152040 77 213 0.0 8.0 0.00 0.00 0.00 50 1016.5
20190820151603 77 213 0.0 8.0 0.00 0.00 0.00 50 1016.5
20190820151200 77 210 0.0 8.0 0.00 0.00 0.00 51 1016.7
20190820150730 77 208 0.0 8.0 0.00 0.00 0.00 51 1016.6
20190820150312 77 183 0.0 6.0 0.00 0.00 0.00 52 1016.6
20190820145910 77 200 0.0 6.0 0.00 0.00 0.00 52 1016.6
20190820145422 77 191 0.0 6.0 0.00 0.00 0.00 52 1016.5
20190820144939 77 199 0.0 7.0 0.00 0.00 0.00 52 1016.7
20190820144440 77 177 0.0 7.0 0.00 0.00 0.00 53 1016.6
20190820143524 76 183 0.0 6.0 0.00 0.00 0.00 55 1016.4